(25127) Laurentbrunetto = 1998 SZ = 2000 CX72

Discovered at Caussols on 1998-09-16 by ODAS.
(25127) Laurentbrunetto = 1998 SZ

Laurent Brunetto (b. 1972) is a physics professor in Antibes, France. He is president of the Groupement Astronomique Populaire de la Région d'Antibes, and is involved in the diffusion of astronomy in schools. An avid amateur astronomer, he has worked on supernova and minor-planet photometry with his home-built observatory. [Ref: Minor Planet Circ. 84674]

Orbit

Orbit type: Main Belt

Note: WebGL enabled browser required.

epoch2024-03-31.0
epoch JD2460400.5
perihelion date2023-04-13.70487
perihelion JD2460048.20487
argument of perihelion (°)228.39420
ascending node (°)178.48550
inclination (°)1.94835
eccentricity0.0390833
perihelion distance (AU)2.7516615
Tisserand w.r.t. Jupiter3.3
ΔV w.r.t. Earth (km/sec)10.3
semimajor axis (AU)2.8635795
mean anomaly (°)71.65502
mean daily motion (°/day)0.20339490
aphelion distance (AU)2.975
period (years)4.85
P-vector [x]0.68352096
P-vector [y]0.67940441
P-vector [z]0.26684968
Q-vector [x]-0.72993033
Q-vector [y]0.63575649
Q-vector [z]0.25102868
absolute magnitude14.98
phase slope0.15
uncertainty0
referenceMPEC 2024-F50
observations used1203
oppositions25
arc length (days)12877
first opposition used1988
last opposition used2024
residual rms (arc-secs)0.71
perturbers coarse indicatorM-v
perturbers precise indicator003Ek
first observation date used1988-11-02.0
last observation date used2024-02-04.0
computer nameMPCLINUX
JD of orbit computation2456731.453024
perihelion JD uncertainty (days)2.9526E-04
argument of perihelion uncertainty (°)1.4319E-04
ascending node uncertainty (°)1.2922E-04
inclination uncertainty (°)4.5619E-06
eccentricity uncertainty 3.8937E-08
perihelion distance uncertainty (AU)1.1694E-07
Minimum Orbit Intersection Distances (in AU)
for orbit epoch: 2460400.5, reference: E2024-F50
Mercury2.4249
Venus2.02869
Earth1.76125
Mars1.19911
Jupiter2.17284
Saturn6.2565
Uranus15.5198
Neptune27.0674

Observations

1234 total observations over interval: 1988 11 02.44075 – 2024 02 04.395906
These data are available for download (format description).

Date (UT) J2000 RA J2000 Dec Magn Location Ref
1988 11 02.44075 23 30 05.04 -03 38 15.9   260 – Siding Spring Observatory-DSS MPS 27449
1989 11 04.44410 07 10 39.50 +19 59 34.5   261 – Palomar Mountain-DSS MPS 27449
1991 02 12.74286 13 11 17.52 -07 21 34.6   260 – Siding Spring Observatory-DSS MPS 27449
1996 04 21.55706 13 31 07.90 -08 04 28.0   260 – Siding Spring Observatory-DSS MPS 27449
1996 04 21.60914 13 31 05.45 -08 04 11.1   260 – Siding Spring Observatory-DSS MPS 27449
1998 09 16.04173 02 12 39.56 +12 13 55.7 19.8 V 910 – Caussols-ODAS MPS 2334
1998 09 16.08181 02 12 38.82 +12 13 49.5 19.6 V 910 – Caussols-ODAS MPS 2334
1998 09 16.09949 02 12 38.52 +12 13 47.7 19.6 V 910 – Caussols-ODAS MPS 2334
1998 09 18.06704 02 12 02.48 +12 08 51.8 20.0 V 910 – Caussols-ODAS MPS 2334
1998 09 18.09052 02 12 01.99 +12 08 48.0 19.7 V 910 – Caussols-ODAS MPS 2334
1998 09 18.11383 02 12 01.50 +12 08 44.3 19.9 V 910 – Caussols-ODAS MPS 2334
1998 09 20.04536 02 11 20.68 +12 03 24.7 20.0 V 910 – Caussols-ODAS MPS 2334
1998 09 20.06121 02 11 20.30 +12 03 22.4 19.9 V 910 – Caussols-ODAS MPS 2334
1998 09 20.07770 02 11 19.89 +12 03 19.4 19.9 V 910 – Caussols-ODAS MPS 2334
2000 01 07.37142 09 01 22.87 +14 31 41.7 19.0   704 – Lincoln Laboratory ETS, New Mexico MPS 11062
2000 01 07.38655 09 01 22.30 +14 31 43.5 19.0   704 – Lincoln Laboratory ETS, New Mexico MPS 11062
2000 01 07.40311 09 01 21.61 +14 31 46.3 19.6   704 – Lincoln Laboratory ETS, New Mexico MPS 11062
2000 01 07.41790 09 01 21.01 +14 31 48.8 19.2   704 – Lincoln Laboratory ETS, New Mexico MPS 11063
2000 01 07.43268 09 01 20.39 +14 31 51.3 19.7   704 – Lincoln Laboratory ETS, New Mexico MPS 11063
2000 01 30.22011 08 42 56.59 +15 50 51.6 19.2 R 703 – Catalina Sky Survey MPS 11063
2000 01 30.23597 08 42 55.66 +15 50 55.4 18.2 R 703 – Catalina Sky Survey MPS 11063
2000 01 30.24774 08 42 55.00 +15 50 58.3 18.8 R 703 – Catalina Sky Survey MPS 11063
2000 01 30.25946 08 42 54.42 +15 51 01.1 19.3 R 703 – Catalina Sky Survey MPS 11063
2000 02 02.25666 08 40 15.10 +16 02 39.7 18.2   704 – Lincoln Laboratory ETS, New Mexico MPS 10410
2000 02 02.28557 08 40 13.52 +16 02 45.8 18.9   704 – Lincoln Laboratory ETS, New Mexico MPS 10410
2000 02 02.29992 08 40 12.75 +16 02 49.4 18.5   704 – Lincoln Laboratory ETS, New Mexico MPS 10410
2000 02 02.31462 08 40 12.08 +16 02 51.1 19.4   704 – Lincoln Laboratory ETS, New Mexico MPS 10410
2000 02 03.23351 08 39 23.66 +16 06 26.0 19.2   704 – Lincoln Laboratory ETS, New Mexico MPS 10410
2000 02 03.24820 08 39 22.88 +16 06 30.3 18.9   704 – Lincoln Laboratory ETS, New Mexico MPS 10410
2000 02 03.27748 08 39 21.26 +16 06 36.6 19.0   704 – Lincoln Laboratory ETS, New Mexico MPS 10410
2000 02 03.29213 08 39 20.53 +16 06 39.8 19.0   704 – Lincoln Laboratory ETS, New Mexico MPS 10410
2001 04 18.34505 14 32 28.65 -13 07 49.3 18.6   704 – Lincoln Laboratory ETS, New Mexico MPS 29432
2001 04 18.35867 14 32 27.92 -13 07 46.2 19.0   704 – Lincoln Laboratory ETS, New Mexico MPS 29432
2001 04 18.37225 14 32 27.30 -13 07 41.6 19.0   704 – Lincoln Laboratory ETS, New Mexico MPS 29432
2001 04 18.38581 14 32 26.71 -13 07 38.4 18.8   704 – Lincoln Laboratory ETS, New Mexico MPS 29432
2001 04 23.30441 14 28 33.36 -12 45 45.8 19.4   704 – Lincoln Laboratory ETS, New Mexico MPS 29900
2001 04 23.31816 14 28 32.68 -12 45 41.1 19.3   704 – Lincoln Laboratory ETS, New Mexico MPS 29900
2001 04 23.33158 14 28 32.03 -12 45 37.1 19.1   704 – Lincoln Laboratory ETS, New Mexico MPS 29900
2001 04 23.34513 14 28 31.45 -12 45 34.2 19.6   704 – Lincoln Laboratory ETS, New Mexico MPS 29900
2001 05 15.24911 14 11 24.26 -11 10 47.8 19.5 R 699 – Lowell Observatory-LONEOS MPS 30725
2001 05 15.27720 14 11 23.08 -11 10 40.5   699 – Lowell Observatory-LONEOS MPS 30725
2001 05 15.30536 14 11 21.82 -11 10 33.6   699 – Lowell Observatory-LONEOS MPS 30725
2001 05 15.33370 14 11 20.68 -11 10 26.6   699 – Lowell Observatory-LONEOS MPS 30725
2001 05 24.01357 14 05 54.89 -10 40 56.1 19.0 R 807 – Cerro Tololo Observatory, La Serena MPS 32068
2001 05 24.12181 14 05 51.14 -10 40 37.0   807 – Cerro Tololo Observatory, La Serena MPS 32068
2002 07 05.32173 20 47 59.40 -15 20 22.1 19.1   704 – Lincoln Laboratory ETS, New Mexico MPS 59422
2002 07 05.34708 20 47 58.47 -15 20 26.9 19.2   704 – Lincoln Laboratory ETS, New Mexico MPS 59422
2002 07 05.37390 20 47 57.43 -15 20 31.1 19.5   704 – Lincoln Laboratory ETS, New Mexico MPS 59422
2002 07 18.23541 20 38 55.50 -15 55 31.3 19.2   644 – Palomar Mountain/NEAT MPS 59422
2002 07 18.29889 20 38 52.43 -15 55 43.4 19.1   644 – Palomar Mountain/NEAT MPS 59422
2002 07 18.36736 20 38 49.07 -15 55 56.2 19.0   644 – Palomar Mountain/NEAT MPS 59422
2002 07 22.31435 20 35 38.58 -16 08 33.5 18.6   644 – Palomar Mountain/NEAT MPS 60597
2002 07 22.33888 20 35 37.36 -16 08 38.0 19.2   644 – Palomar Mountain/NEAT MPS 60597
2002 07 22.37857 20 35 35.33 -16 08 45.8 18.9   644 – Palomar Mountain/NEAT MPS 60597
2002 08 07.30707 20 22 18.77 -17 02 44.6 18.7   644 – Palomar Mountain/NEAT MPS 60597
2002 08 07.33060 20 22 17.59 -17 02 49.5 18.6   644 – Palomar Mountain/NEAT MPS 60597
2002 08 07.35746 20 22 16.23 -17 02 54.9 18.8   644 – Palomar Mountain/NEAT MPS 60597
2002 08 28.17786 20 08 26.74 -18 03 55.2 19.8   644 – Palomar Mountain/NEAT MPS 62270
2002 08 28.19902 20 08 26.08 -18 03 58.0 19.4   644 – Palomar Mountain/NEAT MPS 62270
2002 08 28.22071 20 08 25.44 -18 04 01.1 19.5   644 – Palomar Mountain/NEAT MPS 62270
2003 10 19.57887 03 05 09.07 +15 22 01.7 20.4   608 – Haleakala-AMOS MPS 88819
2003 10 19.58943 03 05 08.62 +15 21 59.4 20.0   608 – Haleakala-AMOS MPS 88819
2003 10 19.59963 03 05 08.18 +15 21 56.8 19.8   608 – Haleakala-AMOS MPS 88819
2003 10 20.49009 03 04 30.81 +15 18 35.7 19.0   644 – Palomar Mountain/NEAT MPS 88819
2003 10 20.50046 03 04 30.36 +15 18 33.5 18.4   644 – Palomar Mountain/NEAT MPS 88819
2003 10 20.51220 03 04 29.83 +15 18 30.8 18.7   644 – Palomar Mountain/NEAT MPS 88819
2003 10 21.34973 03 03 54.10 +15 15 19.3 19.7   704 – Lincoln Laboratory ETS, New Mexico MPS 88819
2003 10 21.36269 03 03 53.49 +15 15 16.5 19.7   704 – Lincoln Laboratory ETS, New Mexico MPS 88819
2003 10 21.38837 03 03 52.28 +15 15 09.9 19.6   704 – Lincoln Laboratory ETS, New Mexico MPS 88819
2003 10 22.44436 03 03 05.92 +15 11 04.9 19.2 V 691 – Steward Observatory, Kitt Peak-Spacewatch MPS 88819
2003 10 22.47085 03 03 04.72 +15 10 58.6 19.2 V 691 – Steward Observatory, Kitt Peak-Spacewatch MPS 88819
2003 10 22.49755 03 03 03.50 +15 10 52.2 19.2 V 691 – Steward Observatory, Kitt Peak-Spacewatch MPS 88819
2003 10 23.33224 03 02 26.31 +15 07 34.7 19.0   704 – Lincoln Laboratory ETS, New Mexico MPS 88819
2003 10 23.34457 03 02 25.73 +15 07 32.2 19.2   704 – Lincoln Laboratory ETS, New Mexico MPS 88819
2003 10 23.35754 03 02 25.13 +15 07 29.3 18.7   704 – Lincoln Laboratory ETS, New Mexico MPS 88819
2003 10 23.37007 03 02 24.56 +15 07 26.3 19.5   704 – Lincoln Laboratory ETS, New Mexico MPS 88819
2003 10 23.38249 03 02 23.97 +15 07 23.6 19.3   704 – Lincoln Laboratory ETS, New Mexico MPS 88819
2003 10 28.26468 02 58 34.18 +14 47 26.9 19.1   704 – Lincoln Laboratory ETS, New Mexico MPS 90175
2003 10 28.28001 02 58 33.43 +14 47 23.3 19.5   704 – Lincoln Laboratory ETS, New Mexico MPS 90175
2003 10 28.29237 02 58 32.66 +14 47 20.2 19.5   704 – Lincoln Laboratory ETS, New Mexico MPS 90175
2003 10 28.30476 02 58 32.19 +14 47 17.0 19.6   704 – Lincoln Laboratory ETS, New Mexico MPS 90175
2003 10 29.30269 02 57 43.15 +14 43 04.9 18.5 V 703 – Catalina Sky Survey MPS 90175
2003 10 29.30948 02 57 42.83 +14 43 03.2 18.9 V 703 – Catalina Sky Survey MPS 90175
2003 10 29.31625 02 57 42.50 +14 43 00.8 19.1 V 703 – Catalina Sky Survey MPS 90175
2003 10 29.32306 02 57 42.09 +14 42 59.0 18.8 V 703 – Catalina Sky Survey MPS 90175
